M I D A S
Marine Information and Data Acquisition System
Tripno 2186 of the Zeeleeuw from 2011-09-20 07:02:04 to 2011-09-20 14:33:28
Back to CruiseResearch ActivitiesStationsMapUnderway DataData graphs

EquipmentUnitsComment
TimeDGPSUTC
LatitudeDGPSDM.mWGS84
LongitudeDGPSDM.mWGS84
TemperatureSBE03/SBE38deg celciusITS90
ConductivitySBE21S/mITS90
SalinitySBE21 Practical Salinity Units
ChlorophylAChelsea fluorimeterg/lCalibrated in Aceton
Missing or incorrect values are displayed as -999
Sea surface data collected by the RV Zeeleeuw from 2011-09-20 07:08:50 to 2011-09-20 15:36:53
Time Latitude Longitude Temperature Conductivity Salinity ChlorophylA
2011-09-20 07:09:58 51°13.656 2°55.938 19.6022 0.061423 0.346446 -3.020363
2011-09-20 07:10:58 51°13.681 2°55.83 19.6042 0.061423 0.346459 -3.020363
2011-09-20 07:11:58 51°13.693 2°55.741 19.6214 0.061423 0.346471 -3.020363
2011-09-20 07:12:55 51°13.701 2°55.738 19.6349 0.061423 0.346484 -3.020363
2011-09-20 07:13:55 51°13.738 2°55.729 19.6494 0.061423 0.346491 -3.020363
2011-09-20 07:14:58 51°13.839 2°55.634 19.5606 0.061423 0.346471 -3.020363
2011-09-20 07:15:58 51°13.983 2°55.526 19.5838 0.061423 0.346497 -3.020363
2011-09-20 07:16:57 51°14.141 2°55.406 19.5859 0.061423 0.346503 -3.020363
2011-09-20 07:17:57 51°14.308 2°55.265 19.5774 0.061423 0.34651 -3.020363
2011-09-20 07:18:56 51°14.479 2°55.108 19.5713 0.061423 0.346516 -3.020363
2011-09-20 07:19:54 51°14.651 2°54.935 19.5335 0.061423 0.346516 -3.020363
2011-09-20 07:20:54 51°14.822 2°54.742 19.5061 0.061423 0.346523 -3.020363
2011-09-20 07:21:54 51°14.989 2°54.545 19.4716 0.061423 0.346529 -3.020363
2011-09-20 07:22:54 51°15.173 2°54.397 19.4814 0.061423 0.346529 -3.020363
2011-09-20 07:23:54 51°15.372 2°54.337 19.4734 0.061423 0.346535 -3.020363
2011-09-20 07:24:54 51°15.578 2°54.402 19.495 0.061423 0.346555 -3.020363
2011-09-20 07:25:54 51°15.778 2°54.505 19.4965 0.061423 0.346561 -3.020363
2011-09-20 07:26:54 51°15.978 2°54.581 19.5273 0.061423 0.346593 -3.020363
2011-09-20 07:27:54 51°16.179 2°54.524 19.5265 0.061423 0.346587 -3.020363
2011-09-20 07:28:54 51°16.31 2°54.46 19.546 0.061423 0.346606 -3.020363
2011-09-20 07:29:54 51°16.345 2°54.429 19.5541 0.061423 0.346619 -3.020363
2011-09-20 07:30:54 51°16.358 2°54.44 19.5605 0.061423 0.346612 -3.020363
2011-09-20 07:31:54 51°16.371 2°54.456 19.5633 0.061423 0.346638 -3.020363
2011-09-20 07:32:54 51°16.385 2°54.471 19.5707 0.061423 0.346651 -3.020363
2011-09-20 07:33:54 51°16.398 2°54.486 19.5795 0.061423 0.346663 -3.020363
2011-09-20 07:34:54 51°16.412 2°54.501 19.6005 0.061423 0.346676 -3.020363
2011-09-20 07:35:54 51°16.426 2°54.516 19.5885 0.061423 0.346683 -3.020363
2011-09-20 07:36:54 51°16.451 2°54.511 19.6154 0.061423 0.346702 -3.020363
2011-09-20 07:37:54 51°16.526 2°54.377 19.6251 0.061423 0.346715 -3.020363
2011-09-20 07:38:54 51°16.632 2°54.138 19.6266 0.061423 0.346727 -3.020363
2011-09-20 07:39:54 51°16.734 2°53.86 19.6079 0.061423 0.346734 -3.020363
2011-09-20 07:40:54 51°16.839 2°53.585 19.6325 0.061423 0.346747 -3.020363
2011-09-20 07:41:54 51°16.948 2°53.313 19.6391 0.061423 0.346766 -3.020363
2011-09-20 07:42:54 51°17.05 2°53.038 19.6604 0.061423 0.346766 -3.020363
2011-09-20 07:43:54 51°17.153 2°52.758 19.6638 0.061423 0.346779 -3.020363
2011-09-20 07:44:54 51°17.262 2°52.483 19.6758 0.061423 0.346791 -3.020363
2011-09-20 07:45:54 51°17.39 2°52.228 19.693 0.061423 0.346804 -3.020363
2011-09-20 07:46:54 51°17.538 2°52.002 19.7008 0.061423 0.346811 -3.020363
2011-09-20 07:47:54 51°17.692 2°51.781 19.7143 0.061423 0.346823 -3.020363
2011-09-20 07:48:54 51°17.844 2°51.561 19.7279 0.061423 0.346836 -3.020363
2011-09-20 07:49:54 51°18.009 2°51.365 19.721 0.061423 0.346849 -3.020363
2011-09-20 07:50:54 51°18.182 2°51.182 19.7549 0.061423 0.346855 -3.020363
2011-09-20 07:51:54 51°18.332 2°51.021 19.7662 0.061423 0.346862 -3.020363
2011-09-20 07:52:54 51°18.435 2°51.005 19.7893 0.061423 0.346881 -3.020363
2011-09-20 07:53:54 51°18.5 2°51.018 19.7861 0.061423 0.3469 -3.020363
2011-09-20 07:54:54 51°18.512 2°51.026 19.7974 0.061423 0.3469 -3.020363
2011-09-20 07:55:54 51°18.523 2°51.039 19.8197 0.061423 0.346907 -3.020363
2011-09-20 07:56:54 51°18.542 2°51.053 19.8178 0.061423 0.34692 -3.020363
2011-09-20 07:57:54 51°18.561 2°51.065 19.8494 0.061423 0.346926 -3.020363
2011-09-20 07:58:54 51°18.58 2°51.072 19.8565 0.061423 0.346932 -3.020363
2011-09-20 07:59:54 51°18.601 2°51.078 19.8515 0.061423 0.346926 -3.020363
2011-09-20 08:00:54 51°18.666 2°51.135 19.8784 0.061423 0.346964 -3.020363
2011-09-20 08:01:54 51°18.727 2°51.372 19.8734 0.061423 0.346958 -3.020363
2011-09-20 08:02:54 51°18.808 2°51.673 19.8729 0.061423 0.346971 -3.020363
2011-09-20 08:03:54 51°18.887 2°51.978 19.9216 0.061423 0.346952 -3.020363
2011-09-20 08:04:54 51°18.962 2°52.286 19.937 0.061423 0.346964 -3.020363
2011-09-20 08:05:54 51°19.037 2°52.593 19.9503 0.061423 0.346958 -3.020363
2011-09-20 08:06:54 51°19.12 2°52.895 19.948 0.061423 0.346971 -3.020363
2011-09-20 08:07:54 51°19.198 2°53.201 19.9549 0.061423 0.346971 -3.020363
2011-09-20 08:08:54 51°19.27 2°53.504 19.9947 0.061423 0.346977 -3.020363
2011-09-20 08:09:54 51°19.347 2°53.809 19.9884 0.061423 0.34699 -3.020363
2011-09-20 08:10:54 51°19.429 2°54.107 20.0123 0.061423 0.346977 -3.020363
2011-09-20 08:11:54 51°19.514 2°54.405 20.0284 0.061423 0.346977 -3.020363
2011-09-20 08:12:54 51°19.597 2°54.704 20.0439 0.061423 0.346977 -3.020363
2011-09-20 08:13:54 51°19.673 2°55.004 20.0732 0.061423 0.346984 -3.020363
2011-09-20 08:14:54 51°19.748 2°55.307 20.0592 0.061423 0.346997 -3.020363
2011-09-20 08:15:54 51°19.821 2°55.611 20.0772 0.061423 0.346997 -3.020363
2011-09-20 08:16:54 51°19.885 2°55.919 20.0995 0.061423 0.34699 -3.020363
2011-09-20 08:17:54 51°19.93 2°56.238 20.0981 0.061423 0.347003 -3.020363
2011-09-20 08:18:54 51°19.974 2°56.554 20.1126 0.061423 0.347016 -3.020363
2011-09-20 08:19:54 51°20.021 2°56.867 20.1417 0.061423 0.347016 -3.020363
2011-09-20 08:20:54 51°20.069 2°57.182 20.1832 0.061423 0.347016 -3.020363
2011-09-20 08:21:54 51°20.119 2°57.495 20.1788 0.061423 0.347022 -3.020363
2011-09-20 08:22:54 51°20.165 2°57.805 20.1852 0.061423 0.347029 -3.020363
2011-09-20 08:23:54 51°20.223 2°58.111 20.1706 0.061423 0.347035 -3.020363
2011-09-20 08:24:54 51°20.277 2°58.425 20.2063 0.061423 0.347035 -3.020363
2011-09-20 08:25:54 51°20.329 2°58.732 20.2388 0.061423 0.347041 -3.020363
2011-09-20 08:26:54 51°20.386 2°59.035 20.2151 0.061423 0.347048 -3.020363
2011-09-20 08:27:54 51°20.429 2°59.349 20.2611 0.061423 0.347041 -3.020363
2011-09-20 08:28:54 51°20.476 2°59.662 20.2813 0.061423 0.347054 -3.020363
2011-09-20 08:29:54 51°20.539 2°59.965 16.8624 3.276391 23.58953 -3.020363
2011-09-20 08:30:54 51°20.582 3°0.275 16.6431 4.38552 34.111709 -3.020363
2011-09-20 08:31:54 51°20.631 3°0.583 16.5999 4.372662 34.128142 -3.020363
2011-09-20 08:32:54 51°20.68 3°0.892 16.5743 4.369551 34.1382 -3.020363
2011-09-20 08:33:54 51°20.735 3°1.196 16.5716 4.366855 34.13948 -3.020363
2011-09-20 08:34:54 51°20.784 3°1.5 16.5526 4.365196 34.140857 -3.020363
2011-09-20 08:35:54 51°20.835 3°1.804 16.543 4.36333 34.132816 -3.020363
2011-09-20 08:36:54 51°20.883 3°2.106 16.5222 4.361152 34.131728 -3.020363
2011-09-20 08:37:54 51°20.93 3°2.412 16.5144 4.359285 34.126449 -3.020363
2011-09-20 08:38:54 51°20.978 3°2.721 16.4991 4.358352 34.128653 -3.020363
2011-09-20 08:39:54 51°21.023 3°3.026 16.4875 4.356382 34.121771 -3.020363
2011-09-20 08:40:54 51°21.078 3°3.326 16.4836 4.357004 34.136226 -3.020363
2011-09-20 08:41:54 51°21.121 3°3.632 16.4731 4.356797 34.139258 -3.020363
2011-09-20 08:42:54 51°21.182 3°3.929 16.4494 4.35493 34.136751 -3.020363
2011-09-20 08:43:54 51°21.254 3°4.217 16.4367 4.351508 34.123372 -3.020363
2011-09-20 08:44:54 51°21.324 3°4.503 16.4018 4.346427 34.092652 -3.020363
2011-09-20 08:45:54 51°21.408 3°4.779 16.33 4.32185 33.920538 -3.020363
2011-09-20 08:46:54 51°21.481 3°5.066 16.2986 4.280787 33.606906 -3.020363
2011-09-20 08:47:54 51°21.558 3°5.352 16.2886 4.246777 33.331065 -3.020363
2011-09-20 08:48:54 51°21.643 3°5.634 16.2946 4.220442 33.105626 -3.020363
2011-09-20 08:49:54 51°21.724 3°5.919 16.3036 4.204268 32.957231 -3.020363
2011-09-20 08:50:54 51°21.792 3°6.21 16.3181 4.190997 32.833047 -3.020363
2011-09-20 08:51:54 51°21.852 3°6.504 16.3397 4.178867 32.716292 -3.020363
2011-09-20 08:52:54 51°21.905 3°6.802 16.3567 4.163835 32.569013 -3.020363
2011-09-20 08:53:54 51°21.958 3°7.1 16.3665 4.151913 32.452391 -3.020363
2011-09-20 08:54:54 51°22.016 3°7.397 16.3814 4.144968 32.381265 -3.020363
2011-09-20 08:55:54 51°22.047 3°7.7 16.3916 4.140614 32.332128 -3.020363
2011-09-20 08:56:54 51°22.066 3°8.006 16.3963 4.138748 32.308643 -3.020363
2011-09-20 08:57:54 51°22.08 3°8.314 16.3988 4.138851 32.30495 -3.020363
2011-09-20 08:58:54 51°22.101 3°8.616 16.3989 4.139058 32.306099 -3.020363
2011-09-20 08:59:54 51°22.129 3°8.92 16.3965 4.13854 32.302241 -3.020363
2011-09-20 09:00:54 51°22.155 3°9.222 16.3987 4.137607 32.294771 -3.020363
2011-09-20 09:01:54 51°22.219 3°9.506 16.395 4.132113 32.248234 -3.020363
2011-09-20 09:02:54 51°22.277 3°9.802 16.3865 4.124961 32.188573 -3.020363
2011-09-20 09:03:54 51°22.314 3°10.105 16.3824 4.121644 32.164924 -3.020363
2011-09-20 09:04:54 51°22.356 3°10.403 16.3785 4.119882 32.154811 -3.020363
2011-09-20 09:05:54 51°22.397 3°10.704 16.3839 4.121644 32.170156 -3.020363
2011-09-20 09:06:54 51°22.441 3°10.995 16.3897 4.124546 32.192161 -3.020363
2011-09-20 09:07:54 51°22.474 3°11.296 16.3919 4.124546 32.18758 -3.020363
2011-09-20 09:08:54 51°22.509 3°11.596 16.3993 4.119363 32.138536 -3.020363
2011-09-20 09:09:54 51°22.531 3°11.899 16.4022 4.116771 32.110759 -3.020363
2011-09-20 09:10:54 51°22.559 3°12.182 16.4021 4.116979 32.111258 -3.020363
2011-09-20 09:11:54 51°22.578 3°12.4 16.4078 4.122369 32.156861 -3.020363
2011-09-20 09:12:54 51°22.578 3°12.599 16.4065 4.127759 32.201816 -3.020363
2011-09-20 09:13:54 51°22.57 3°12.73 16.4068 4.13118 32.231594 -3.020363
2011-09-20 09:14:54 51°22.575 3°12.822 16.4081 4.132424 32.242424 -3.020363
2011-09-20 09:15:54 51°22.585 3°12.893 16.4109 4.133461 32.249483 -3.020363
2011-09-20 09:16:54 51°22.595 3°12.967 16.4132 4.133875 32.250472 -3.020363
2011-09-20 09:17:54 51°22.6 3°13.046 16.4167 4.134808 32.257283 -3.020363
2011-09-20 09:18:54 51°22.604 3°13.127 16.4164 4.13543 32.260732 -3.020363
2011-09-20 09:19:54 51°22.608 3°13.199 16.4169 4.13543 32.260077 -3.020363
2011-09-20 09:20:54 51°22.618 3°13.207 16.4193 4.13543 32.258111 -3.020363
2011-09-20 09:21:54 51°22.655 3°13.206 16.42 4.135223 32.255651 -3.020363
2011-09-20 09:22:54 51°22.672 3°13.182 16.4224 4.134497 32.24868 -3.020363
2011-09-20 09:23:54 51°22.682 3°13.158 16.4293 4.13429 32.245566 -3.020363
2011-09-20 09:24:54 51°22.689 3°13.137 16.4298 4.134497 32.244096 -3.020363
2011-09-20 09:25:54 51°22.695 3°13.119 16.4302 4.134601 32.244999 -3.020363
2011-09-20 09:26:54 51°22.7 3°13.104 16.4305 4.134704 32.244591 -3.020363
2011-09-20 09:27:54 51°22.738 3°13.065 16.4292 4.134808 32.244838 -3.020363
2011-09-20 09:28:54 51°22.869 3°12.976 16.4337 4.134912 32.244431 -3.020363
2011-09-20 09:29:54 51°23.055 3°12.9 16.4474 4.135948 32.250178 -3.020363
2011-09-20 09:30:54 51°23.232 3°12.834 16.4509 4.139058 32.269377 -3.020363
2011-09-20 09:31:54 51°23.404 3°12.792 16.4559 4.142064 32.292911 -3.020363
2011-09-20 09:32:54 51°23.574 3°12.77 16.4642 4.145381 32.31456 -3.020363
2011-09-20 09:33:54 51°23.746 3°12.743 16.4773 4.147143 32.322678 -3.020363
2011-09-20 09:34:54 51°23.919 3°12.707 16.4808 4.14818 32.323827 -3.020363
2011-09-20 09:35:54 51°24.098 3°12.675 16.488 4.150046 32.335465 -3.020363
2011-09-20 09:36:54 51°24.295 3°12.636 16.4877 4.155747 32.381767 -3.020363
2011-09-20 09:37:54 51°24.463 3°12.435 16.4753 4.16487 32.467043 -3.020363
2011-09-20 09:38:54 51°24.535 3°12.098 16.4699 4.173578 32.54811 -3.020363
2011-09-20 09:39:54 51°24.552 3°11.742 16.4698 4.178865 32.596789 -3.020363
2011-09-20 09:40:54 51°24.558 3°11.386 16.4677 4.183738 32.638564 -3.020363
2011-09-20 09:41:54 51°24.57 3°11.035 16.4707 4.1883 32.679624 -3.020363
2011-09-20 09:42:54 51°24.59 3°10.684 16.4672 4.190166 32.696546 -3.020363
2011-09-20 09:43:54 51°24.601 3°10.332 16.4645 4.189751 32.692933 -3.020363
2011-09-20 09:44:54 51°24.617 3°9.982 16.459 4.190581 32.703476 -3.020363
2011-09-20 09:45:54 51°24.637 3°9.633 16.4586 4.190166 32.70119 -3.020363
2011-09-20 09:46:54 51°24.663 3°9.286 16.4588 4.190373 32.704324 -3.020363
2011-09-20 09:47:54 51°24.679 3°8.939 16.4557 4.191203 32.712879 -3.020363
2011-09-20 09:48:54 51°24.713 3°8.596 16.454 4.193069 32.731136 -3.020363
2011-09-20 09:49:54 51°24.765 3°8.261 16.4557 4.194935 32.746737 -3.020363
2011-09-20 09:50:54 51°24.806 3°7.921 16.4596 4.195764 32.754632 -3.020363
2011-09-20 09:51:54 51°24.867 3°7.588 16.457 4.196283 32.757156 -3.020363
2011-09-20 09:52:54 51°25.002 3°7.328 16.4631 4.197423 32.764438 -3.020363
2011-09-20 09:53:54 51°25.202 3°7.261 16.4656 4.199289 32.776049 -3.020363
2011-09-20 09:54:54 51°25.405 3°7.321 16.4622 4.200119 32.785273 -3.020363
2011-09-20 09:55:54 51°25.583 3°7.482 16.4625 4.199393 32.776287 -3.020363
2011-09-20 09:56:54 51°25.75 3°7.673 16.4647 4.19763 32.762921 -3.020363
2011-09-20 09:57:54 51°25.916 3°7.867 16.4629 4.197008 32.758164 -3.020363
2011-09-20 09:58:54 51°26.085 3°8.055 16.4715 4.197838 32.764063 -3.020363
2011-09-20 09:59:54 51°26.252 3°8.24 16.463 4.200326 32.78442 -3.020363
2011-09-20 10:00:54 51°26.365 3°8.335 16.4613 4.202399 32.803825 -3.020363
2011-09-20 10:01:54 51°26.436 3°8.347 16.4613 4.199704 32.781659 -3.020363
2011-09-20 10:02:54 51°26.475 3°8.322 16.4575 4.200015 32.7857 -3.020363
2011-09-20 10:03:54 51°26.49 3°8.325 16.4579 4.20043 32.791311 -3.020363
2011-09-20 10:04:54 51°26.503 3°8.33 16.453 4.200637 32.795781 -3.020363
2011-09-20 10:05:54 51°26.514 3°8.337 16.4597 4.200533 32.794212 -3.020363
2011-09-20 10:06:54 51°26.526 3°8.346 16.4547 4.201259 32.799207 -3.020363
2011-09-20 10:07:54 51°26.536 3°8.355 16.4583 4.201466 32.803012 -3.020363
2011-09-20 10:08:54 51°26.544 3°8.364 16.4543 4.201674 32.802823 -3.020363
2011-09-20 10:09:54 51°26.571 3°8.354 16.4573 4.201985 32.808198 -3.020363
2011-09-20 10:10:54 51°26.685 3°8.194 16.4575 4.202296 32.809578 -3.020363
2011-09-20 10:11:54 51°26.817 3°7.947 16.459 4.205095 32.833319 -3.020363
2011-09-20 10:12:54 51°26.914 3°7.662 16.4646 4.214219 32.91222 -3.020363
2011-09-20 10:13:54 51°26.991 3°7.357 16.4637 4.225416 33.004553 -3.020363
2011-09-20 10:14:54 51°27.086 3°7.06 16.4706 4.232881 33.067682 -3.020363
2011-09-20 10:15:54 51°27.186 3°6.771 16.4681 4.23765 33.107965 -3.020363
2011-09-20 10:16:54 51°27.289 3°6.482 16.4612 4.241279 33.141659 -3.020363
2011-09-20 10:17:54 51°27.382 3°6.187 16.4626 4.245116 33.17852 -3.020363
2011-09-20 10:18:54 51°27.482 3°5.897 16.4691 4.24947 33.213854 -3.020363
2011-09-20 10:19:54 51°27.583 3°5.605 16.4814 4.255069 33.260056 -3.020363
2011-09-20 10:20:54 51°27.679 3°5.312 16.4964 4.262742 33.314239 -3.020363
2011-09-20 10:21:54 51°27.778 3°5.018 16.5149 4.271556 33.378361 -3.020363
2011-09-20 10:22:54 51°27.872 3°4.724 16.522 4.28068 33.445857 -3.020363
2011-09-20 10:23:54 51°27.966 3°4.426 16.5314 4.286798 33.491823 -3.020363
2011-09-20 10:24:54 51°28.061 3°4.129 16.5385 4.291464 33.527821 -3.020363
2011-09-20 10:25:54 51°28.149 3°3.83 16.5681 4.297375 33.568565 -3.020363
2011-09-20 10:26:54 51°28.241 3°3.543 16.599 4.310959 33.659954 -3.020363
2011-09-20 10:27:54 51°28.277 3°3.412 16.6139 4.321224 33.727074 -3.020363
2011-09-20 10:28:54 51°28.288 3°3.394 16.6183 4.325476 33.753265 -3.020363
2011-09-20 10:29:54 51°28.295 3°3.397 16.625 4.327239 33.763871 -3.020363
2011-09-20 10:30:54 51°28.302 3°3.4 16.6275 4.329105 33.776746 -3.020363
2011-09-20 10:31:54 51°28.307 3°3.403 16.6306 4.330142 33.782381 -3.020363
2011-09-20 10:32:54 51°28.311 3°3.406 16.6353 4.330868 33.786667 -3.020363
2011-09-20 10:33:54 51°28.315 3°3.409 16.6338 4.331594 33.790952 -3.020363
2011-09-20 10:34:54 51°28.32 3°3.411 16.638 4.331905 33.792983 -3.020363
2011-09-20 10:35:54 51°28.353 3°3.341 16.64 4.332216 33.793649 -3.020363
2011-09-20 10:36:54 51°28.353 3°3.134 16.6423 4.33232 33.794554 -3.020363
2011-09-20 10:37:54 51°28.342 3°2.838 16.6471 4.333046 33.796108 -3.020363
2011-09-20 10:38:54 51°28.284 3°2.529 16.6492 4.335224 33.81169 -3.020363
2011-09-20 10:39:54 51°28.218 3°2.219 16.6476 4.336572 33.819351 -3.020363
2011-09-20 10:40:54 51°28.157 3°1.902 16.6408 4.33512 33.810785 -3.020363
2011-09-20 10:41:54 51°28.1 3°1.58 16.634 4.333046 33.796108 -3.020363
2011-09-20 10:42:54 51°28.04 3°1.259 16.6272 4.330453 33.780318 -3.020363
2011-09-20 10:43:54 51°27.978 3°0.942 16.623 4.328794 33.771302 -3.020363
2011-09-20 10:44:54 51°27.919 3°0.625 16.6183 4.328172 33.77065 -3.020363
2011-09-20 10:45:54 51°27.868 3°0.307 16.6136 4.328691 33.777905 -3.020363
2011-09-20 10:46:54 51°27.812 2°59.991 16.5933 4.328898 33.787226 -3.020363
2011-09-20 10:47:54 51°27.749 2°59.678 16.5728 4.324647 33.767868 -3.020363
2011-09-20 10:48:54 51°27.692 2°59.362 16.5642 4.321432 33.754822 -3.020363
2011-09-20 10:49:54 51°27.675 2°59.041 16.585 4.322158 33.765947 -3.020363
2011-09-20 10:50:54 51°27.747 2°58.74 16.6465 4.33398 33.839793 -3.020363
2011-09-20 10:51:54 51°27.843 2°58.447 16.6856 4.352957 33.958879 -3.020363
2011-09-20 10:52:54 51°27.933 2°58.149 16.709 4.363535 34.021671 -3.020363
2011-09-20 10:53:54 51°28.002 2°57.84 16.7292 4.369343 34.05516 -3.020363
2011-09-20 10:54:54 51°27.991 2°57.506 16.7604 4.375254 34.085412 -3.020363
2011-09-20 10:55:54 51°27.939 2°57.181 16.7776 4.380543 34.109531 -3.020363
2011-09-20 10:56:54 51°27.875 2°56.86 16.7939 4.38438 34.127165 -3.020363
2011-09-20 10:57:54 51°27.815 2°56.535 16.8001 4.387076 34.141035 -3.020363
2011-09-20 10:58:54 51°27.759 2°56.207 16.8083 4.388632 34.147715 -3.020363
2011-09-20 10:59:54 51°27.709 2°55.878 16.8115 4.389876 34.150997 -3.020363
2011-09-20 11:00:54 51°27.648 2°55.557 16.8134 4.390706 34.15616 -3.020363
2011-09-20 11:01:54 51°27.57 2°55.243 16.8203 4.390913 34.154532 -3.020363
2011-09-20 11:02:54 51°27.498 2°54.928 16.8268 4.394232 34.177926 -3.020363
2011-09-20 11:03:54 51°27.434 2°54.608 16.8358 4.396825 34.19431 -3.020363
2011-09-20 11:04:54 51°27.36 2°54.295 16.8476 4.400248 34.215163 -3.020363
2011-09-20 11:05:54 51°27.286 2°53.981 16.8555 4.403878 34.238501 -3.020363
2011-09-20 11:06:54 51°27.214 2°53.665 16.8656 4.406885 34.257793 -3.020363
2011-09-20 11:07:54 51°27.168 2°53.336 16.8719 4.409686 34.274589 -3.020363
2011-09-20 11:08:54 51°27.122 2°53.005 16.8834 4.411967 34.287558 -3.020363
2011-09-20 11:09:54 51°27.072 2°52.678 16.8902 4.414457 34.300951 -3.020363
2011-09-20 11:10:54 51°27.017 2°52.354 16.8992 4.416946 34.316405 -3.020363
2011-09-20 11:11:54 51°26.958 2°52.033 16.9114 4.419642 34.330905 -3.020363
2011-09-20 11:12:54 51°26.886 2°51.716 16.9168 4.421613 34.341843 -3.020363
2011-09-20 11:13:54 51°26.82 2°51.397 16.9156 4.42265 34.348106 -3.020363
2011-09-20 11:14:54 51°26.76 2°51.077 16.9141 4.423065 34.350336 -3.020363
2011-09-20 11:15:54 51°26.688 2°50.76 16.9112 4.422961 34.3515 -3.020363
2011-09-20 11:16:54 51°26.593 2°50.456 16.9114 4.422858 34.351975 -3.020363
2011-09-20 11:17:54 51°26.5 2°50.151 16.9117 4.423065 34.351024 -3.020363
2011-09-20 11:18:54 51°26.415 2°49.841 16.9144 4.423272 34.353516 -3.020363
2011-09-20 11:19:54 51°26.33 2°49.532 16.9159 4.423791 34.356648 -3.020363
2011-09-20 11:20:54 51°26.238 2°49.22 16.9164 4.424517 34.360893 -3.020363
2011-09-20 11:21:54 51°26.121 2°48.944 16.9225 4.425347 34.36604 -3.020363
2011-09-20 11:22:54 51°25.989 2°48.735 16.9276 4.426695 34.370184 -3.020363
2011-09-20 11:23:54 51°25.979 2°48.618 16.9299 4.42794 34.380314 -3.020363
2011-09-20 11:24:54 51°25.983 2°48.582 16.9306 4.428251 34.380263 -3.020363
2011-09-20 11:25:54 51°25.985 2°48.574 16.9319 4.428355 34.381164 -3.020363
2011-09-20 11:26:54 51°25.986 2°48.569 16.9328 4.428355 34.379787 -3.020363
2011-09-20 11:27:54 51°25.986 2°48.565 16.937 4.428562 34.380212 -3.020363
2011-09-20 11:28:54 51°25.987 2°48.562 16.9399 4.428769 34.37926 -3.020363
2011-09-20 11:29:54 51°25.986 2°48.559 16.9416 4.428977 34.378997 -3.020363
2011-09-20 11:30:54 51°25.985 2°48.555 16.9428 4.428977 34.378308 -3.020363
2011-09-20 11:31:54 51°25.984 2°48.551 16.9413 4.429081 34.377832 -3.020363
2011-09-20 11:32:54 51°25.992 2°48.511 16.9459 4.429081 34.377832 -3.020363
2011-09-20 11:33:54 51°25.984 2°48.448 16.9472 4.429288 34.37688 -3.020363
2011-09-20 11:34:54 51°25.926 2°48.366 16.9474 4.429288 34.376192 -3.020363
2011-09-20 11:35:54 51°25.783 2°48.251 16.9565 4.429495 34.374552 -3.020363
2011-09-20 11:36:54 51°25.599 2°48.096 16.954 4.430014 34.372863 -3.020363
2011-09-20 11:37:54 51°25.418 2°47.92 16.9535 4.430325 34.376943 -3.020363
2011-09-20 11:38:54 51°25.233 2°47.757 16.9503 4.430325 34.379696 -3.020363
2011-09-20 11:39:54 51°25.048 2°47.586 16.9503 4.430636 34.38171 -3.020363
2011-09-20 11:40:54 51°24.87 2°47.423 16.9549 4.43074 34.381235 -3.020363
2011-09-20 11:41:54 51°24.708 2°47.214 16.9568 4.430532 34.37668 -3.020363
2011-09-20 11:42:54 51°24.56 2°46.97 16.9594 4.429288 34.363118 -3.020363
2011-09-20 11:43:54 51°24.408 2°46.734 16.9622 4.428147 34.351146 -3.020363
2011-09-20 11:44:54 51°24.249 2°46.509 16.9646 4.427006 34.341239 -3.020363
2011-09-20 11:45:54 51°24.117 2°46.25 16.9624 4.426487 34.3333 -3.020363
2011-09-20 11:46:54 51°24.046 2°45.933 16.9621 4.425657 34.328157 -3.020363
2011-09-20 11:47:54 51°23.981 2°45.609 16.9633 4.425242 34.325241 -3.020363
2011-09-20 11:48:54 51°23.918 2°45.281 16.9652 4.425242 34.323867 -3.020363
2011-09-20 11:49:54 51°23.864 2°44.947 16.9693 4.425346 34.322707 -3.020363
2011-09-20 11:50:54 51°23.809 2°44.615 16.975 4.425761 34.324248 -3.020363
2011-09-20 11:51:54 51°23.749 2°44.286 16.9789 4.426487 34.327117 -3.020363
2011-09-20 11:52:54 51°23.673 2°43.966 16.9842 4.427628 34.331526 -3.020363
2011-09-20 11:53:54 51°23.607 2°43.64 16.988 4.428976 34.340482 -3.020363
2011-09-20 11:54:54 51°23.54 2°43.322 16.9886 4.430739 34.353038 -3.020363
2011-09-20 11:55:54 51°23.464 2°43.006 16.989 4.432192 34.36358 -3.020363
2011-09-20 11:56:54 51°23.39 2°42.689 16.9882 4.433125 34.368932 -3.020363
2011-09-20 11:57:54 51°23.323 2°42.368 16.9881 4.433229 34.371895 -3.020363
2011-09-20 11:58:54 51°23.256 2°42.046 16.9886 4.430428 34.347589 -3.020363
2011-09-20 11:59:54 51°23.189 2°41.725 16.9898 4.432295 34.365167 -3.020363
2011-09-20 12:00:54 51°23.117 2°41.411 16.9916 4.43188 34.360192 -3.020363
2011-09-20 12:01:54 51°23.036 2°41.096 16.9944 4.431362 34.354317 -3.020363
2011-09-20 12:02:54 51°22.934 2°40.803 16.9915 4.431051 34.350242 -3.020363
2011-09-20 12:03:54 51°22.814 2°40.536 16.995 4.431154 34.348395 -3.020363
2011-09-20 12:04:54 51°22.694 2°40.259 16.9977 4.431154 34.348395 -3.020363
2011-09-20 12:05:54 51°22.578 2°39.976 16.9962 4.431465 34.349035 -3.020363
2011-09-20 12:06:54 51°22.468 2°39.692 16.9951 4.431673 34.350835 -3.020363
2011-09-20 12:07:54 51°22.356 2°39.409 16.988 4.432191 34.359457 -3.020363
2011-09-20 12:08:54 51°22.233 2°39.137 16.9802 4.43354 34.374596 -3.020363
2011-09-20 12:09:54 51°22.113 2°38.86 16.977 4.434785 34.392278 -3.020363
2011-09-20 12:10:54 51°22.002 2°38.577 16.9709 4.436237 34.40695 -3.020363
2011-09-20 12:11:54 51°21.884 2°38.301 16.9695 4.436652 34.416749 -3.020363
2011-09-20 12:12:54 51°21.77 2°38.019 16.9687 4.436963 34.419452 -3.020363
2011-09-20 12:13:54 51°21.657 2°37.733 16.9622 4.436445 34.418391 -3.020363
2011-09-20 12:14:54 51°21.549 2°37.443 16.9622 4.436133 34.419133 -3.020363
2011-09-20 12:15:54 51°21.484 2°37.126 16.9582 4.436652 34.423638 -3.020363
2011-09-20 12:16:54 51°21.42 2°36.811 16.9571 4.436963 34.428408 -3.020363
2011-09-20 12:17:54 51°21.344 2°36.499 16.9579 4.437482 34.434981 -3.020363
2011-09-20 12:18:54 51°21.269 2°36.193 16.9594 4.438001 34.437418 -3.020363
2011-09-20 12:19:54 51°21.194 2°35.88 16.9623 4.438312 34.438743 -3.020363
2011-09-20 12:20:54 51°21.122 2°35.565 16.9658 4.438415 34.437576 -3.020363
2011-09-20 12:21:54 51°21.046 2°35.25 16.9588 4.438104 34.436941 -3.020363
2011-09-20 12:22:54 51°20.967 2°34.931 16.955 4.437689 34.436094 -3.020363
2011-09-20 12:23:54 51°20.897 2°34.608 16.9569 4.437274 34.433868 -3.020363
2011-09-20 12:24:54 51°20.824 2°34.288 16.9611 4.43686 34.430264 -3.020363
2011-09-20 12:25:54 51°20.742 2°33.975 16.9648 4.43686 34.42544 -3.020363
2011-09-20 12:26:54 51°20.672 2°33.655 16.9728 4.436548 34.418603 -3.020363
2011-09-20 12:27:54 51°20.592 2°33.342 16.9819 4.436756 34.413518 -3.020363
2011-09-20 12:28:54 51°20.511 2°33.031 16.9972 4.437585 34.410397 -3.020363
2011-09-20 12:29:54 51°20.442 2°32.713 16.998 4.438415 34.410718 -3.020363
2011-09-20 12:30:54 51°20.366 2°32.396 17.0035 4.43883 34.410191 -3.020363
2011-09-20 12:31:54 51°20.282 2°32.083 17.0113 4.439245 34.41104 -3.020363
2011-09-20 12:32:54 51°20.208 2°31.766 17.0195 4.440074 34.410674 -3.020363
2011-09-20 12:33:54 51°20.136 2°31.447 17.0231 4.440697 34.409885 -3.020363
2011-09-20 12:34:54 51°20.071 2°31.123 17.0179 4.440697 34.410572 -3.020363
2011-09-20 12:35:54 51°20.015 2°30.799 17.0179 4.441215 34.413696 -3.020363
2011-09-20 12:36:54 51°19.987 2°30.472 17.0021 4.442564 34.43021 -3.020363
2011-09-20 12:37:54 51°19.982 2°30.159 16.9966 4.442875 34.443235 -3.020363
2011-09-20 12:38:54 51°19.983 2°29.975 16.987 4.442771 34.4506 -3.020363
2011-09-20 12:39:54 51°20.006 2°29.913 16.9874 4.44246 34.451343 -3.020363
2011-09-20 12:40:54 51°20.013 2°29.912 16.9846 4.442357 34.451821 -3.020363
2011-09-20 12:41:54 51°20.019 2°29.912 16.9852 4.442253 34.451609 -3.020363
2011-09-20 12:42:54 51°20.025 2°29.914 16.9839 4.442046 34.451875 -3.020363
2011-09-20 12:43:54 51°20.032 2°29.916 16.9832 4.441942 34.450975 -3.020363
2011-09-20 12:44:54 51°20.039 2°29.916 16.986 4.442046 34.451875 -3.020363
2011-09-20 12:45:54 51°20.047 2°29.914 16.982 4.441942 34.451664 -3.020363
2011-09-20 12:46:54 51°20.054 2°29.915 16.9812 4.441838 34.450763 -3.020363
2011-09-20 12:47:54 51°20.088 2°29.901 16.9825 4.441838 34.451452 -3.020363
2011-09-20 12:48:54 51°20.147 2°29.954 16.9797 4.442149 34.452087 -3.020363
2011-09-20 12:49:54 51°20.128 2°30.094 16.9847 4.442149 34.452087 -3.020363
2011-09-20 12:50:54 51°20.029 2°30.295 16.9809 4.442564 34.453622 -3.020363
2011-09-20 12:51:54 51°19.896 2°30.523 16.9854 4.442564 34.454311 -3.020363
2011-09-20 12:52:54 51°19.762 2°30.761 17.0067 4.442772 34.454734 -3.020363
2011-09-20 12:53:54 51°19.632 2°31.003 17.0044 4.442771 34.447844 -3.020363
2011-09-20 12:54:54 51°19.498 2°31.243 17.0182 4.442253 34.430262 -3.020363
2011-09-20 12:55:54 51°19.368 2°31.487 17.0197 4.442045 34.411956 -3.020363
2011-09-20 12:56:54 51°19.234 2°31.728 17.0248 4.4408 34.405972 -3.020363
2011-09-20 12:57:54 51°19.101 2°31.971 17.0239 4.440696 34.400261 -3.020363
2011-09-20 12:58:54 51°18.967 2°32.212 17.0212 4.440281 34.394602 -3.020363
2011-09-20 12:59:54 51°18.834 2°32.454 17.0022 4.439037 34.398237 -3.020363
2011-09-20 13:00:54 51°18.704 2°32.701 16.9983 4.399934 34.061317 -3.020363
2011-09-20 13:01:54 51°18.573 2°32.95 16.9932 4.446609 34.477026 -3.020363
2011-09-20 13:02:54 51°18.446 2°33.203 17.0016 4.446713 34.484821 -3.020363
2011-09-20 13:03:54 51°18.317 2°33.453 17.0021 4.447024 34.47856 -3.020363
2011-09-20 13:04:54 51°18.186 2°33.698 16.9987 4.447231 34.474847 -3.020363
2011-09-20 13:05:54 51°18.059 2°33.948 16.9985 4.448476 34.476003 -3.020363
2011-09-20 13:06:54 51°17.93 2°34.192 16.9769 4.448995 34.494979 -3.020363
2011-09-20 13:07:54 51°17.8 2°34.439 16.968 4.448684 34.509526 -3.020363
2011-09-20 13:08:54 51°17.672 2°34.686 16.9651 4.44858 34.514839 -3.020363
2011-09-20 13:09:54 51°17.546 2°34.934 16.9602 4.448062 34.514477 -3.020363
2011-09-20 13:10:54 51°17.417 2°35.181 16.9753 4.447025 34.506847 -3.020363
2011-09-20 13:11:54 51°17.291 2°35.433 16.9791 4.447232 34.499674 -3.020363
2011-09-20 13:12:54 51°17.161 2°35.683 16.9759 4.447647 34.501207 -3.020363
2011-09-20 13:13:54 51°17.031 2°35.935 16.968 4.447439 34.504237 -3.020363
2011-09-20 13:14:54 51°16.897 2°36.184 16.9658 4.447025 34.504085 -3.020363
2011-09-20 13:15:54 51°16.762 2°36.428 16.9637 4.446195 34.501709 -3.020363
2011-09-20 13:16:54 51°16.62 2°36.625 16.9594 4.445572 34.495611 -3.020363
2011-09-20 13:17:54 51°16.54 2°36.76 16.9557 4.444535 34.488671 -3.020363
2011-09-20 13:18:54 51°16.56 2°36.838 16.9502 4.443083 34.485027 -3.020363
2011-09-20 13:19:54 51°16.596 2°36.836 16.946 4.441942 34.479254 -3.020363
2011-09-20 13:20:54 51°16.6 2°36.83 16.9425 4.441113 34.476875 -3.020363
2011-09-20 13:21:54 51°16.602 2°36.832 16.9402 4.441216 34.475015 -3.020363
2011-09-20 13:22:54 51°16.602 2°36.838 16.9413 4.440905 34.474382 -3.020363
2011-09-20 13:23:54 51°16.601 2°36.846 16.9411 4.440905 34.475072 -3.020363
2011-09-20 13:24:54 51°16.599 2°36.853 16.9402 4.440801 34.475551 -3.020363
2011-09-20 13:25:54 51°16.61 2°36.844 16.9404 4.440594 34.474439 -3.020363
2011-09-20 13:26:54 51°16.612 2°36.772 16.9401 4.440386 34.473326 -3.020363
2011-09-20 13:27:54 51°16.556 2°36.725 16.9462 4.44049 34.474228 -3.020363
2011-09-20 13:28:54 51°16.421 2°36.719 16.9399 4.441009 34.473903 -3.020363
2011-09-20 13:29:54 51°16.344 2°36.65 16.9363 4.44132 34.473155 -3.020363
2011-09-20 13:30:54 51°16.315 2°36.534 16.9328 4.439453 34.470735 -3.020363
2011-09-20 13:31:54 51°16.265 2°36.403 16.9298 4.438727 34.465804 -3.020363
2011-09-20 13:32:54 51°16.224 2°36.286 16.9305 4.438623 34.464903 -3.020363
2011-09-20 13:33:54 51°16.186 2°36.18 16.9283 4.43852 34.464691 -3.020363
2011-09-20 13:34:54 51°16.153 2°36.079 16.9316 4.43852 34.464001 -3.020363
2011-09-20 13:35:54 51°16.122 2°35.97 16.9276 4.438623 34.465593 -3.020363
2011-09-20 13:36:54 51°16.085 2°35.857 16.9288 4.43852 34.466763 -3.020363
2011-09-20 13:37:54 51°16.037 2°35.734 16.9297 4.438727 34.466495 -3.020363
2011-09-20 13:38:54 51°15.906 2°35.613 16.933 4.438934 34.468298 -3.020363
2011-09-20 13:39:54 51°15.723 2°35.675 16.9366 4.439246 34.468932 -3.020363
2011-09-20 13:40:54 51°15.536 2°35.813 16.9259 4.439038 34.466438 -3.020363
2011-09-20 13:41:54 51°15.349 2°35.948 16.9247 4.438519 34.460549 -3.020363
2011-09-20 13:42:54 51°15.161 2°36.085 16.9153 4.436964 34.456689 -3.020363
2011-09-20 13:43:54 51°14.974 2°36.221 16.9136 4.436341 34.45473 -3.020363
2011-09-20 13:44:54 51°14.791 2°36.367 16.9128 4.436238 34.454518 -3.020363
2011-09-20 13:45:54 51°14.609 2°36.509 16.9029 4.435927 34.455955 -3.020363
2011-09-20 13:46:54 51°14.423 2°36.645 16.8966 4.43489 34.457295 -3.020363
2011-09-20 13:47:54 51°14.237 2°36.781 16.8893 4.434786 34.458466 -3.020363
2011-09-20 13:48:54 51°14.056 2°36.929 16.8848 4.43406 34.457677 -3.020363
2011-09-20 13:49:54 51°13.871 2°37.067 16.8773 4.43323 34.455295 -3.020363
2011-09-20 13:50:54 51°13.685 2°37.2 16.8535 4.43043 34.43991 -3.020363
2011-09-20 13:51:54 51°13.495 2°37.306 16.8241 4.42514 34.411142 -3.020363
2011-09-20 13:52:54 51°13.295 2°37.352 16.8129 4.419021 34.382036 -3.020363
2011-09-20 13:53:54 51°13.092 2°37.379 16.8133 4.416221 34.368697 -3.020363
2011-09-20 13:54:54 51°12.892 2°37.359 16.8126 4.416428 34.369813 -3.020363
2011-09-20 13:55:54 51°12.696 2°37.284 16.8098 4.417154 34.374065 -3.020363
2011-09-20 13:56:54 51°12.504 2°37.193 16.7946 4.415702 34.370397 -3.020363
2011-09-20 13:57:54 51°12.31 2°37.107 16.7769 4.41342 34.360879 -3.020363
2011-09-20 13:58:54 51°12.113 2°37.035 16.7782 4.411243 34.352261 -3.020363
2011-09-20 13:59:54 51°11.917 2°36.965 16.7836 4.41062 34.346837 -3.020363
2011-09-20 14:00:54 51°11.725 2°36.88 16.7892 4.410724 34.342214 -3.020363
2011-09-20 14:01:54 51°11.531 2°36.791 16.7956 4.410931 34.339878 -3.020363
2011-09-20 14:02:54 51°11.339 2°36.699 16.8029 4.411346 34.337278 -3.020363
2011-09-20 14:03:54 51°11.143 2°36.627 16.813 4.41145 34.33473 -3.020363
2011-09-20 14:04:54 51°10.95 2°36.537 16.8188 4.412072 34.33187 -3.020363
2011-09-20 14:05:54 51°10.754 2°36.472 16.8253 4.411864 34.326613 -3.020363
2011-09-20 14:06:54 51°10.56 2°36.396 16.8173 4.412072 34.322213 -3.020363
2011-09-20 14:07:54 51°10.36 2°36.394 16.8143 4.411449 34.322311 -3.020363
2011-09-20 14:08:54 51°10.196 2°36.561 16.8197 4.410309 34.315134 -3.020363
2011-09-20 14:09:54 51°10.176 2°36.888 16.8158 4.410723 34.317368 -3.020363
2011-09-20 14:10:54 51°10.23 2°37.224 16.8207 4.409064 34.303606 -3.020363
2011-09-20 14:11:54 51°10.292 2°37.554 16.8229 4.407612 34.28545 -3.020363
2011-09-20 14:12:54 51°10.346 2°37.887 16.8218 4.407093 34.278181 -3.020363
2011-09-20 14:13:54 51°10.391 2°38.224 16.7981 4.405952 34.27238 -3.020363
2011-09-20 14:14:54 51°10.426 2°38.563 16.7651 4.401804 34.259672 -3.020363
2011-09-20 14:15:54 51°10.468 2°38.896 16.7519 4.397448 34.243767 -3.020363
2011-09-20 14:16:54 51°10.522 2°39.226 16.7363 4.394959 34.235166 -3.020363
2011-09-20 14:17:54 51°10.567 2°39.559 16.7213 4.392781 34.228585 -3.020363
2011-09-20 14:18:54 51°10.601 2°39.894 16.706 4.390603 34.222001 -3.020363
2011-09-20 14:19:54 51°10.644 2°40.226 16.6874 4.3877 34.213219 -3.020363
2011-09-20 14:20:54 51°10.687 2°40.562 16.6696 4.384589 34.199862 -3.020363
2011-09-20 14:21:54 51°10.732 2°40.897 16.6586 4.381685 34.188309 -3.020363
2011-09-20 14:22:54 51°10.779 2°41.235 16.6452 4.3793 34.17921 -3.020363
2011-09-20 14:23:54 51°10.826 2°41.572 16.6341 4.377225 34.170754 -3.020363
2011-09-20 14:24:54 51°10.854 2°41.814 16.6273 4.375774 34.164971 -3.020363
2011-09-20 14:25:54 51°10.899 2°41.987 16.6187 4.374737 34.162122 -3.020363
2011-09-20 14:26:54 51°10.984 2°42.044 16.6183 4.373596 34.159055 -3.020363
2011-09-20 14:27:54 51°11.075 2°42.044 16.6246 4.373285 34.154956 -3.020363
2011-09-20 14:28:54 51°11.107 2°42.044 16.6303 4.373803 34.157417 -3.020363
2011-09-20 14:29:54 51°11.12 2°42.064 16.6332 4.37484 34.160957 -3.020363
2011-09-20 14:30:54 51°11.132 2°42.09 16.638 4.37567 34.164755 -3.020363
2011-09-20 14:31:54 51°11.144 2°42.121 16.6426 4.376292 34.166741 -3.020363
2011-09-20 14:32:54 51°11.156 2°42.154 16.6503 4.377329 34.17028 -3.020363
2011-09-20 14:33:54 51°11.176 2°42.176 16.6542 4.378159 34.174767 -3.020363
2011-09-20 14:34:54 51°11.246 2°42.244 16.6593 4.379092 34.177398 -3.020363
2011-09-20 14:35:54 51°11.364 2°42.478 16.6742 4.380855 34.186585 -3.020363
2011-09-20 14:36:54 51°11.445 2°42.801 16.6816 4.38324 34.196372 -3.020363
2011-09-20 14:37:54 51°11.493 2°43.146 16.6855 4.385107 34.208528 -3.020363
2011-09-20 14:38:54 51°11.55 2°43.49 16.686 4.385833 34.210725 -3.020363
2011-09-20 14:39:54 51°11.597 2°43.837 16.6917 4.386455 34.212016 -3.020363
2011-09-20 14:40:54 51°11.618 2°44.191 16.6923 4.386766 34.213352 -3.020363
2011-09-20 14:41:54 51°11.655 2°44.544 16.6906 4.386455 34.210636 -3.020363
2011-09-20 14:42:54 51°11.698 2°44.896 16.6801 4.384796 34.199603 -3.020363
2011-09-20 14:43:54 51°11.751 2°45.244 16.671 4.382307 34.185464 -3.020363
2011-09-20 14:44:54 51°11.795 2°45.595 16.6685 4.380544 34.174901 -3.020363
2011-09-20 14:45:54 51°11.856 2°45.94 16.6656 4.379196 34.167268 -3.020363
2011-09-20 14:46:54 51°11.912 2°46.284 16.6627 4.378159 34.159593 -3.020363
2011-09-20 14:47:54 51°12 2°46.613 16.669 4.377225 34.154202 -3.020363
2011-09-20 14:48:54 51°12.091 2°46.941 16.6709 4.377225 34.151445 -3.020363
2011-09-20 14:49:54 51°12.177 2°47.273 16.6748 4.377432 34.150499 -3.020363
2011-09-20 14:50:54 51°12.251 2°47.613 16.6741 4.377847 34.150674 -3.020363
2011-09-20 14:51:54 51°12.339 2°47.943 16.6694 4.377536 34.148648 -3.020363
2011-09-20 14:52:54 51°12.435 2°48.268 16.6723 4.376914 34.144594 -3.020363
2011-09-20 14:53:54 51°12.517 2°48.602 16.6728 4.376706 34.142784 -3.020363
2011-09-20 14:54:54 51°12.611 2°48.931 16.6681 4.376395 34.140068 -3.020363
2011-09-20 14:55:54 51°12.709 2°49.256 16.6585 4.375151 34.134715 -3.020363
2011-09-20 14:56:54 51°12.8 2°49.587 16.6555 4.373492 34.127118 -3.020363
2011-09-20 14:57:54 51°12.915 2°49.899 16.6522 4.372869 34.122374 -3.020363
2011-09-20 14:58:54 51°13.034 2°50.208 16.6433 4.371729 34.118613 -3.020363
2011-09-20 14:59:54 51°13.14 2°50.526 16.6083 4.369343 34.107427 -3.020363
2011-09-20 15:00:54 51°13.246 2°50.845 16.5861 4.36198 34.069966 -3.020363
2011-09-20 15:01:54 51°13.361 2°51.157 16.5615 4.354721 34.0258 -3.020363
2011-09-20 15:02:54 51°13.474 2°51.471 16.5429 4.349536 33.999051 -3.020363
2011-09-20 15:03:54 51°13.574 2°51.796 16.5215 4.344144 33.96703 -3.020363
2011-09-20 15:04:54 51°13.673 2°52.117 16.5023 4.337507 33.927542 -3.020363
2011-09-20 15:05:54 51°13.776 2°52.44 16.5016 4.332737 33.89749 -3.020363
2011-09-20 15:06:54 51°13.878 2°52.764 16.4977 4.330559 33.881869 -3.020363
2011-09-20 15:07:54 51°14.001 2°53.07 16.4951 4.327448 33.857395 -3.020363
2011-09-20 15:08:54 51°14.132 2°53.369 16.4987 4.325063 33.835154 -3.020363
2011-09-20 15:09:54 51°14.258 2°53.672 16.5247 4.327033 33.843473 -3.020363
2011-09-20 15:10:54 51°14.377 2°53.951 16.7875 0.072322 0.424724 -3.020363
2011-09-20 15:11:54 51°14.466 2°54.177 16.8914 0.073761 0.433445 -3.020363
2011-09-20 15:12:54 51°14.514 2°54.326 16.9944 0.068106 0.39896 -3.020363
2011-09-20 15:13:54 51°14.55 2°54.437 17.0868 0.064713 0.378294 -3.020363
2011-09-20 15:14:54 51°14.602 2°54.529 17.1779 0.061423 0.35832 -3.020363
2011-09-20 15:15:54 51°14.688 2°54.537 17.2848 0.05803 0.337779 -3.020363
2011-09-20 15:16:54 51°14.775 2°54.49 17.3773 0.055048 0.31978 -3.020363
2011-09-20 15:17:54 51°14.853 2°54.431 17.4619 0.052992 0.307362 -3.020363
2011-09-20 15:18:54 51°14.925 2°54.334 17.5443 0.051553 0.298649 -3.020363
2011-09-20 15:19:54 51°15.02 2°54.364 17.6798 0.050833 0.294227 -3.020363
2011-09-20 15:20:54 51°15.031 2°54.497 17.7523 0.048982 0.28312 -3.020363
2011-09-20 15:21:54 51°14.981 2°54.605 17.8477 0.047954 0.276908 -3.020363
2011-09-20 15:22:54 51°14.938 2°54.686 17.9291 0.047337 0.273143 -3.020363
2011-09-20 15:23:54 51°14.846 2°54.803 17.9989 0.04672 0.269384 -3.020363
2011-09-20 15:24:54 51°14.715 2°54.94 18.0749 0.045898 0.264415 -3.020363
2011-09-20 15:25:54 51°14.558 2°55.067 18.1446 0.045384 0.26127 -3.020363
2011-09-20 15:26:54 51°14.39 2°55.19 18.1877 0.044767 0.257538 -3.020363
2011-09-20 15:27:55 51°14.225 2°55.335 18.2232 0.04415 0.253798 -3.020363
2011-09-20 15:28:54 51°14.101 2°55.43 18.2607 0.043533 0.250072 -3.020363
2011-09-20 15:29:54 51°13.997 2°55.506 18.3263 0.042916 0.246343 -3.020363
2011-09-20 15:30:54 51°13.901 2°55.574 18.3877 0.042402 0.243228 -3.020363
2011-09-20 15:31:54 51°13.814 2°55.637 18.4876 0.041991 0.240721 -3.020363
2011-09-20 15:32:54 51°13.746 2°55.729 18.5854 0.04158 0.238216 -3.020363
2011-09-20 15:33:58 51°13.692 2°55.837 18.6259 0.041168 0.235715 -3.020363
2011-09-20 15:34:58 51°13.657 2°55.923 18.6722 0.04086 0.233819 -3.020363
2011-09-20 15:35:58 51°13.642 2°55.992 18.7744 0.040551 0.231924 -3.020363